When you browse on this site, cookies collect data to enhance your experience and personalize the content and advertising you see.
Visit our Privacy Policy to learn more. By continuing to use the site, you agree to this use of cookies and data.
  • In Hungary
  • List of Countries
  • For 7 days
  • Water Temperature
  • Weather Map
  • News
  • Weather Widgets
  • user-avatar
    Login

    Hourly Weather Novoileck

    Today, 7 June, Sunday

    Time Temperature Precipitation Wind Pressure Humidity
    00:00 +19°C° 0 mm 1 mps 756 mmHg 73%
    01:00 +18°C° 0 mm 1 mps 756 mmHg 74%
    02:00 +18°C° 0 mm 1 mps 757 mmHg 75%
    03:00 +16°C° 0 mm 1 mps 757 mmHg 77%
    04:00 +16°C° 0 mm 1 mps 757 mmHg 78%
    05:00 +19°C° 0 mm 1 mps 757 mmHg 72%
    06:00 +20°C° 0 mm 1 mps 757 mmHg 67%
    07:00 +21°C° 0 mm 2 mps 757 mmHg 61%
    08:00 +23°C° 0 mm 2 mps 757 mmHg 56%
    09:00 +24°C° 0 mm 2 mps 757 mmHg 51%
    10:00 +26°C° 0 mm 1 mps 757 mmHg 46%
    11:00 +27°C° 0 mm 2 mps 757 mmHg 43%
    12:00 +28°C° 0 mm 2 mps 757 mmHg 39%
    13:00 +29°C° 0 mm 3 mps 757 mmHg 36%
    14:00 +28°C° 0 mm 3 mps 757 mmHg 38%
    15:00 +28°C° 0 mm 3 mps 757 mmHg 41%
    16:00 +27°C° 0 mm 3 mps 757 mmHg 44%
    17:00 +26°C° 0 mm 3 mps 756 mmHg 49%
    18:00 +26°C° 0 mm 3 mps 756 mmHg 55%
    19:00 +25°C° 0 mm 3 mps 756 mmHg 60%
    20:00 +22°C° 0.4 mm 3 mps 756 mmHg 69%
    21:00 +20°C° 0.4 mm 3 mps 756 mmHg 79%
    22:00 +18°C° 0.4 mm 4 mps 756 mmHg 88%
    23:00 +18°C° 0.3 mm 3 mps 756 mmHg 88%

    Tomorrow, 8 June, Monday

    Time Temperature Precipitation Wind Pressure Humidity
    00:00 +18°C° 0.3 mm 3 mps 756 mmHg 88%
    01:00 +18°C° 0.3 mm 3 mps 756 mmHg 88%
    02:00 +18°C° 0 mm 3 mps 756 mmHg 86%
    03:00 +18°C° 0 mm 3 mps 756 mmHg 84%
    04:00 +18°C° 0 mm 4 mps 756 mmHg 82%
    05:00 +19°C° 0 mm 4 mps 756 mmHg 77%
    06:00 +19°C° 0 mm 4 mps 756 mmHg 72%
    07:00 +20°C° 0 mm 4 mps 756 mmHg 68%
    08:00 +21°C° 0 mm 3 mps 756 mmHg 61%
    09:00 +22°C° 0 mm 3 mps 756 mmHg 55%
    10:00 +24°C° 0 mm 3 mps 756 mmHg 49%
    11:00 +23°C° 0.1 mm 4 mps 756 mmHg 50%
    12:00 +25°C° 0.1 mm 4 mps 756 mmHg 52%
    13:00 +25°C° 0.1 mm 4 mps 756 mmHg 54%
    14:00 +26°C° 0.3 mm 5 mps 756 mmHg 50%
    15:00 +26°C° 0.3 mm 5 mps 756 mmHg 47%
    16:00 +27°C° 0.3 mm 6 mps 755 mmHg 44%
    17:00 +26°C° 0.8 mm 4 mps 755 mmHg 47%
    18:00 +25°C° 0.8 mm 3 mps 755 mmHg 51%
    19:00 +25°C° 0.8 mm 2 mps 755 mmHg 54%
    20:00 +24°C° 0.3 mm 2 mps 755 mmHg 54%
    21:00 +22°C° 0.3 mm 3 mps 756 mmHg 53%
    22:00 +21°C° 0.3 mm 4 mps 756 mmHg 53%
    23:00 +20°C° 0 mm 4 mps 756 mmHg 54%

    Day after tomorrow, 9 June, Tuesday

    Time Temperature Precipitation Wind Pressure Humidity
    00:00 +20°C° 0 mm 4 mps 756 mmHg 56%
    01:00 +19°C° 0 mm 5 mps 756 mmHg 57%
    02:00 +19°C° 0 mm 5 mps 756 mmHg 55%
    03:00 +19°C° 0 mm 5 mps 757 mmHg 52%
    04:00 +19°C° 0 mm 5 mps 757 mmHg 50%
    05:00 +20°C° 0 mm 5 mps 757 mmHg 52%
    06:00 +20°C° 0 mm 4 mps 758 mmHg 53%
    07:00 +20°C° 0 mm 4 mps 758 mmHg 55%
    08:00 +22°C° 0 mm 4 mps 758 mmHg 49%
    09:00 +26°C° 0 mm 5 mps 759 mmHg 43%
    10:00 +28°C° 0 mm 6 mps 759 mmHg 37%
    11:00 +29°C° 0 mm 6 mps 759 mmHg 34%
    12:00 +30°C° 0 mm 6 mps 759 mmHg 31%
    13:00 +30°C° 0 mm 5 mps 759 mmHg 28%
    14:00 +32°C° 0 mm 5 mps 759 mmHg 28%
    15:00 +32°C° 0 mm 5 mps 759 mmHg 27%
    16:00 +32°C° 0 mm 5 mps 759 mmHg 27%
    17:00 +29°C° 0 mm 4 mps 758 mmHg 33%
    18:00 +28°C° 0 mm 3 mps 758 mmHg 40%
    19:00 +27°C° 0 mm 2 mps 758 mmHg 47%
    20:00 +26°C° 0 mm 2 mps 758 mmHg 46%
    21:00 +25°C° 0 mm 3 mps 759 mmHg 45%
    22:00 +24°C° 0 mm 3 mps 759 mmHg 45%
    23:00 +23°C° 0 mm 4 mps 759 mmHg 44%

    10 June, Wednesday

    Time Temperature Precipitation Wind Pressure Humidity
    00:00 +22°C° 0 mm 4 mps 759 mmHg 44%
    01:00 +22°C° 0 mm 4 mps 759 mmHg 44%
    02:00 +21°C° 0 mm 4 mps 759 mmHg 44%
    03:00 +21°C° 0 mm 4 mps 759 mmHg 44%
    04:00 +20°C° 0 mm 4 mps 759 mmHg 45%
    05:00 +21°C° 0 mm 5 mps 760 mmHg 46%
    06:00 +21°C° 0 mm 5 mps 760 mmHg 47%
    07:00 +22°C° 0 mm 5 mps 760 mmHg 48%
    08:00 +25°C° 0 mm 5 mps 760 mmHg 44%
    09:00 +27°C° 0 mm 5 mps 760 mmHg 39%
    10:00 +29°C° 0 mm 5 mps 760 mmHg 35%
    11:00 +30°C° 0 mm 5 mps 760 mmHg 32%
    12:00 +32°C° 0 mm 5 mps 760 mmHg 29%
    13:00 +33°C° 0 mm 4 mps 760 mmHg 26%
    14:00 +33°C° 0 mm 4 mps 760 mmHg 28%
    15:00 +31°C° 0 mm 3 mps 760 mmHg 30%
    16:00 +31°C° 0 mm 2 mps 759 mmHg 32%
    17:00 +30°C° 0 mm 3 mps 759 mmHg 35%
    18:00 +29°C° 0 mm 3 mps 759 mmHg 39%
    19:00 +28°C° 0 mm 4 mps 759 mmHg 43%
    20:00 +27°C° 0 mm 4 mps 759 mmHg 44%
    21:00 +26°C° 0 mm 4 mps 759 mmHg 45%
    22:00 +25°C° 0 mm 4 mps 759 mmHg 47%
    23:00 +23°C° 0 mm 4 mps 759 mmHg 48%

    11 June, Thursday

    Time Temperature Precipitation Wind Pressure Humidity
    00:00 +22°C° 0 mm 4 mps 759 mmHg 49%
    01:00 +22°C° 0 mm 4 mps 759 mmHg 50%
    02:00 +21°C° 0 mm 4 mps 759 mmHg 51%
    03:00 +21°C° 0 mm 3 mps 759 mmHg 53%
    04:00 +21°C° 0 mm 3 mps 759 mmHg 54%
    05:00 +22°C° 0 mm 3 mps 759 mmHg 53%
    06:00 +24°C° 0 mm 3 mps 759 mmHg 53%
    07:00 +25°C° 0 mm 3 mps 759 mmHg 52%
    08:00 +27°C° 0 mm 3 mps 759 mmHg 47%
    09:00 +29°C° 0 mm 4 mps 759 mmHg 42%
    10:00 +32°C° 0 mm 4 mps 758 mmHg 37%
    11:00 +32°C° 0 mm 4 mps 758 mmHg 34%
    12:00 +33°C° 0 mm 3 mps 758 mmHg 31%
    13:00 +34°C° 0 mm 3 mps 758 mmHg 28%
    14:00 +34°C° 0 mm 3 mps 757 mmHg 28%
    15:00 +34°C° 0 mm 2 mps 757 mmHg 28%
    16:00 +34°C° 0 mm 2 mps 756 mmHg 27%
    17:00 +33°C° 0 mm 3 mps 756 mmHg 32%
    18:00 +31°C° 0 mm 3 mps 756 mmHg 37%
    19:00 +30°C° 0 mm 3 mps 756 mmHg 43%
    20:00 +28°C° 0 mm 3 mps 756 mmHg 43%
    21:00 +27°C° 0 mm 3 mps 756 mmHg 44%
    22:00 +25°C° 0 mm 3 mps 756 mmHg 45%
    23:00 +25°C° 0 mm 3 mps 755 mmHg 46%

    12 June, Friday

    Time Temperature Precipitation Wind Pressure Humidity
    00:00 +24°C° 0 mm 3 mps 755 mmHg 48%
    01:00 +22°C° 0 mm 3 mps 755 mmHg 50%
    02:00 +22°C° 0 mm 3 mps 755 mmHg 50%
    03:00 +21°C° 0 mm 3 mps 755 mmHg 50%
    04:00 +21°C° 0 mm 3 mps 754 mmHg 50%
    05:00 +22°C° 0 mm 3 mps 754 mmHg 48%
    06:00 +25°C° 0 mm 2 mps 754 mmHg 46%
    07:00 +26°C° 0 mm 2 mps 754 mmHg 44%
    08:00 +28°C° 0 mm 2 mps 754 mmHg 38%
    09:00 +30°C° 0 mm 2 mps 754 mmHg 32%
    10:00 +32°C° 0 mm 2 mps 754 mmHg 27%
    11:00 +32°C° 0 mm 1 mps 754 mmHg 25%
    12:00 +33°C° 0 mm 1 mps 753 mmHg 23%
    13:00 +34°C° 0 mm 1 mps 753 mmHg 22%
    14:00 +34°C° 0 mm 1 mps 753 mmHg 23%
    15:00 +34°C° 0 mm 1 mps 752 mmHg 23%
    16:00 +33°C° 0 mm 1 mps 752 mmHg 24%
    17:00 +33°C° 0 mm 1 mps 751 mmHg 28%
    18:00 +32°C° 0 mm 1 mps 751 mmHg 32%
    19:00 +31°C° 0 mm 1 mps 751 mmHg 37%
    20:00 +29°C° 0 mm 2 mps 751 mmHg 38%
    21:00 +27°C° 0 mm 2 mps 751 mmHg 40%
    22:00 +25°C° 0 mm 2 mps 751 mmHg 42%
    23:00 +24°C° 0 mm 2 mps 750 mmHg 44%
    Show more